This is the latest recevied weather packets stored in our database for station/object DL3GCR-10. If no packets are shown the sender has not sent any weather packets the latest 10 day(s).
| Time | Temp. | Humidity | Pressure | Rain* | Wind** | Luminosity | Snow |
|---|---|---|---|---|---|---|---|
| 1777513927 | 11.67° C | 30% | 1025.1 hPa | - | - | - | - |
| 1777513027 | 11.67° C | 29% | 1024.9 hPa | - | - | - | - |
| 1777510326 | 12.22° C | 32% | 1024.6 hPa | - | - | - | - |
| 1777509426 | 12.22° C | 30% | 1024.4 hPa | - | - | - | - |
| 1777508526 | 12.78° C | 28% | 1024.4 hPa | - | - | - | - |
| 1777507626 | 13.33° C | 29% | 1024.3 hPa | - | - | - | - |
| 1777503124 | 14.44° C | 24% | 1024.2 hPa | - | - | - | - |
| 1777501327 | 14.44° C | 24% | 1024 hPa | - | - | - | - |
| 1777500427 | 14.44° C | 24% | 1024 hPa | - | - | - | - |
| 1777497727 | 15° C | 23% | 1023.6 hPa | - | - | - | - |
| 1777495926 | 15° C | 26% | 1023.5 hPa | - | - | - | - |
| 1777494126 | 15.56° C | 25% | 1023.3 hPa | - | - | - | - |
| 1777492326 | 16.67° C | 24% | 1022.9 hPa | - | - | - | - |
| 1777490525 | 17.22° C | 24% | 1022.6 hPa | - | - | - | - |
| 1777487825 | 18.33° C | 25% | 1022.2 hPa | - | - | - | - |
| 1777486024 | 19.44° C | 24% | 1021.8 hPa | - | - | - | - |
| 1777484224 | 20° C | 24% | 1021.5 hPa | - | - | - | - |
| 1777483324 | 20° C | 23% | 1021.4 hPa | - | - | - | - |
| 1777482424 | 20.56° C | 24% | 1021.4 hPa | - | - | - | - |
| 1777480623 | 21.67° C | 23% | 1021.2 hPa | - | - | - | - |
| 1777479727 | 22.22° C | 23% | 1021.2 hPa | - | - | - | - |
| 1777477026 | 23.89° C | 21% | 1020.8 hPa | - | - | - | - |
| 1777476126 | 23.89° C | 21% | 1020.7 hPa | - | - | - | - |
| 1777475226 | 24.44° C | 22% | 1020.8 hPa | - | - | - | - |
| 1777471625 | 24.44° C | 21% | 1020.7 hPa | - | - | - | - |
* Rain since midnight (hover to see other rain measurements)
** Current wind speed in m/s (hover to see current wind gust speed)